Glendive, MT

6:11 AM MST on December 15, 2019 (GMT -0700)
Dawson Community

Weather History for KGDV - October, 2019

Change the Weather History Date:

Thursday, October 17, 2019

  Actual Average Record
Temperature  
Mean Temperature 53 °F 47 °F  
Max Temperature 71 °F 60 °F 84 °F (2003)
Min Temperature 35 °F 35 °F 23 °F (1999)
Degree Days  
Heating Degree Days 12 18  
Month to date heating degree days 388 243  
Year to date heating degree days 6255 4642  
Since 1 July heating degree days 689 350  
Cooling Degree Days 0 0  
Month to date cooling degree days 0 0  
Year to date cooling degree days 465 382  
Since 1 July cooling degree days 465 382  
Growing Degree Days 3 (Base 50)    
Moisture  
Dew Point 37 °F    
Average Humidity 63    
Maximum Humidity 86    
Minimum Humidity 32    
Precipitation  
Precipitation 0.00 in 0.03 in 0.13 in (2004)
Month to date precipitation 0.40 0.71  
Year to date precipitation 17.57 12.37  
Sea Level Pressure  
Sea Level Pressure 29.56 in    
Wind  
Wind Speed 3 mph (SW)    
Max Wind Speed 15 mph    
Max Gust Speed -    
Visibility 10 miles    
Events      
T = Trace of Precipitation, MM = Missing Value Source: NWS Daily Summary

Daily Weather History Graph

Daily Weather History Graph

Search for Another Location

Airport or City:

Astronomy

Oct. 17, 2019 Rise Set
Actual Time 7:20 AM MDT 6:08 PM MDT
Civil Twilight 6:49 AM MDT 6:39 PM MDT
Nautical Twilight 6:13 AM MDT 7:14 PM MDT
Astronomical Twilight 5:38 AM MDT 7:49 PM MDT
Moon 8:28 PM MDT (10/17) 11:06 AM MDT (10/17)
Length of Visible Light 11h 49m
Length of Day
10h 48m
Waning Gibbous, 86% of the Moon is Illuminated
Oct 17
Waning Gibbous
Oct 21
Last Quarter
Oct 27
New
Nov 4
First Quarter
Nov 12
Full

Hourly Weather History & Observations

Time (MDT) Temp. Windchill Dew Point Humidity Pressure Visibility Wind Dir Wind Speed Gust Speed Precip Events Conditions
12:56 AM 39.9 °F - 32.0 °F 73% 29.79 in 10.0 mi Calm Calm - N/A   Clear
1:56 AM 39.9 °F - 33.1 °F 77% 29.76 in 10.0 mi Calm Calm - N/A   Clear
2:56 AM 37.0 °F 33.3 °F 32.0 °F 82% 29.75 in 10.0 mi SW 4.6 mph - N/A   Clear
3:56 AM 37.9 °F - 33.1 °F 83% 29.72 in 10.0 mi Calm Calm - N/A   Clear
4:56 AM 39.0 °F - 33.1 °F 79% 29.70 in 10.0 mi Calm Calm - N/A   Clear
5:56 AM 37.0 °F - 32.0 °F 82% 29.69 in 10.0 mi Calm Calm - N/A   Clear
6:56 AM 37.0 °F - 33.1 °F 86% 29.69 in 10.0 mi Calm Calm - N/A   Clear
7:56 AM 39.0 °F - 33.1 °F 79% 29.68 in 10.0 mi Calm Calm - N/A   Clear
8:56 AM 44.1 °F 42.5 °F 37.9 °F 79% 29.65 in 10.0 mi SW 3.5 mph - N/A   Clear
9:56 AM 48.9 °F - 39.0 °F 69% 29.63 in 10.0 mi Calm Calm - N/A   Clear
10:56 AM 55.0 °F - 39.0 °F 55% 29.60 in 10.0 mi Calm Calm - N/A   Clear
11:56 AM 64.0 °F - 41.0 °F 43% 29.54 in 10.0 mi SSE 8.1 mph - N/A   Clear
12:56 PM 69.1 °F - 41.0 °F 36% 29.49 in 10.0 mi SSE 9.2 mph - N/A   Clear
1:56 PM 69.1 °F - 37.9 °F 32% 29.46 in 10.0 mi SSE 12.7 mph - N/A   Clear
2:56 PM 68.0 °F - 39.0 °F 35% 29.44 in 10.0 mi SSE 11.5 mph - N/A   Clear
3:56 PM 66.0 °F - 39.0 °F 37% 29.44 in 10.0 mi SSE 9.2 mph - N/A   Clear
4:56 PM 63.0 °F - 41.0 °F 45% 29.43 in 10.0 mi South 9.2 mph - N/A   Clear
5:56 PM 57.9 °F - 39.9 °F 51% 29.43 in 10.0 mi SSW 4.6 mph - N/A   Clear
6:56 PM 53.1 °F - 39.0 °F 59% 29.43 in 10.0 mi SW 3.5 mph - N/A   Clear
7:56 PM 48.9 °F - 39.0 °F 69% 29.43 in 10.0 mi NW 5.8 mph - N/A   Clear
8:56 PM 51.1 °F - 37.9 °F 61% 29.42 in 10.0 mi NW 4.6 mph - N/A   Clear
9:56 PM 48.9 °F - 37.0 °F 64% 29.42 in 10.0 mi WNW 8.1 mph - N/A   Clear
10:56 PM 51.1 °F - 39.9 °F 66% 29.42 in 10.0 mi NNW 15.0 mph - N/A   Clear
11:56 PM 51.1 °F - 39.9 °F 66% 29.43 in 10.0 mi NW 15.0 mph - N/A   Clear